Location: Clifton Park
(41.4873°N, 81.8024°W)
Time: 02:04:21
(UTC+00:00)

Daily predictions for brighter satellites

Satellite Brightness Start Highest point End
(mag) Time Altitude Azimuth Time Altitude Azimuth Time Altitude Azimuth
COSMOS 2428 4.5 00:01:42 10° NW 00:06:50 35° WSW 00:11:56 10° SSW
Shenzhou-11 Module 3.1 00:05:24 10° SW 00:07:21 30° S 00:07:21 30° S
SL-8 R/B 3.8 00:04:36 10° SW 00:09:22 63° SE 00:10:51 41° E
Cosmos 1269 Rocket 4.2 00:04:55 10° NNW 00:10:12 74° WSW 00:15:27 10° S
Cosmos 44 3.3 00:06:45 10° SSW 00:11:15 51° ESE 00:12:06 44° E
Cosmos 1727 Rocket 4.0 00:12:18 10° N 00:18:19 51° ENE 00:24:17 10° SSE
CZ-2D R/B 3.2 00:15:24 10° S 00:19:12 80° WSW 00:23:03 10° NNW
BREEZE-M DEB (TANK) 4.1 00:22:54 10° SW 00:25:52 33° S 00:25:52 33° S
SL-8 Rocket 4.2 00:21:41 10° SSW 00:27:59 73° W 00:34:18 10° N
Atlas Centaur 2 3.9 00:24:39 10° SSW 00:28:21 19° SSE 00:29:10 18° SSE
NOSS 2-1 (E) 4.5 00:29:42 10° NNW 00:35:27 79° NE 00:40:34 23° SE
Meteor 2-10 Rocket 3.6 00:31:12 10° NNW 00:36:32 75° W 00:41:38 10° S
YAOGAN 1 4.0 00:33:49 10° SSW 00:37:50 37° W 00:41:52 10° NNW
Cosmos 1328 4.2 00:34:43 10° SSW 00:38:42 63° W 00:39:30 50° NNW
Ariane Rocket 2.8 00:40:32 31° SSE 00:43:03 82° ENE 00:48:09 10° NNW
Cosmos 1455 3.1 00:39:41 10° NNW 00:43:22 48° W 00:47:01 10° SSW
ADEOS Rocket 3.2 00:39:09 10° NNE 00:45:44 90° E 00:53:02 10° SSW
ATLAS 5 CENTAUR R/B 4.4 00:45:14 10° NNW 00:50:23 39° NE 00:50:27 39° NE
H-2A R/B 4.2 00:57:34 13° N 00:57:34 13° N 00:58:07 10° N
Cosmos 2237 Rocket 3.6 00:49:14 10° NW 00:54:20 36° WSW 00:59:24 10° S
IRS-1A Rocket 4.2 00:49:19 10° SSE 00:55:07 87° WSW 01:00:52 10° NNW
H-2A ROCKET BODY 4.1 00:54:35 10° SW 00:56:03 11° SW 00:57:12 10° SSW
Meteor 1-11 4.2 00:51:01 10° SSW 00:56:38 81° W 00:58:13 49° N
Cosmos 2251 Rocket 4.1 01:02:38 10° NNW 01:06:27 49° NNW 01:06:27 49° NNW
ISS -0.6 01:10:58 10° W 01:11:37 14° W 01:11:37 14° W
SL-16 R/B 2.5 01:09:57 10° NNW 01:15:08 64° W 01:15:08 64° W
DELTA 2 R/B (1) 4.2 01:13:34 10° W 01:17:54 53° WSW 01:17:54 53° WSW
Cosmos 2297 Rocket 4.3 01:29:11 10° W 01:33:26 21° NW 01:35:51 17° NNW
Cosmos 2227 Rocket 4.4 01:41:45 10° W 01:45:43 19° NW 01:47:29 17° NNW
Cosmos 1980 Rocket 3.9 09:37:27 14° SSE 09:41:25 29° ESE 09:46:13 10° NE
Cosmos 1697 Rocket 3.6 09:50:37 44° NE 09:50:37 44° NE 09:54:33 10° NNE
Cosmos 2344 3.5 09:48:54 65° S 09:50:00 76° ESE 09:57:54 10° NE
COSMOS 2455 4.3 09:49:07 12° S 09:53:57 35° ESE 09:59:19 10° NE
CZ-3 R/B 3.8 09:46:38 35° SW 09:54:18 47° S 10:02:36 10° ESE
Cosmos 2184 Rocket 3.8 10:11:22 81° SW 10:11:22 81° SW 10:17:22 10° S
Cosmos 2082 3.6 10:15:55 83° SSE 10:15:55 83° SSE 10:21:23 10° SSE
Cosmos 2154 Rocket 4.1 10:13:05 10° N 10:19:18 71° E 10:25:28 10° SSE
BREEZE-M DEB (TANK) 4.4 10:17:41 32° WSW 10:25:06 78° NW 10:30:28 10° NE
STARLINK-24 4.5 10:26:01 46° ESE 10:26:01 46° ESE 10:29:26 10° ENE
Cosmos 2297 Rocket 3.8 10:29:59 20° SSW 10:29:59 20° SSW 10:31:47 10° S
STARLINK-81 4.5 10:27:00 45° ESE 10:27:00 45° ESE 10:30:36 10° ENE
COSMO-SKYMED 1 3.1 10:22:32 10° SSE 10:26:46 56° ENE 10:27:53 42° NNE
STARLINK-54 4.3 10:28:56 50° ESE 10:28:56 50° ESE 10:32:30 10° ENE
STARLINK-77 4.3 10:30:09 49° SE 10:30:09 49° SE 10:33:55 10° ENE
STARLINK-25 4.2 10:31:46 51° SE 10:31:46 51° SE 10:35:35 10° ENE
STARLINK-71 4.0 10:33:45 58° ESE 10:33:45 58° ESE 10:37:29 10° ENE
Cosmos 1610 Rocket 4.4 10:27:42 10° N 10:34:00 83° W 10:40:21 10° S
STARLINK-79 4.1 10:34:56 55° SE 10:34:57 55° SE 10:38:54 10° ENE
ATLAS 3B R/B 4.2 10:30:01 13° NNW 10:34:57 28° NE 10:40:45 10° E
SJ-12 4.3 10:30:56 10° NNE 10:34:58 63° E 10:39:01 10° S
STARLINK-78 4.0 10:36:36 57° SE 10:36:39 57° SE 10:40:37 10° ENE
STARLINK-42 3.9 10:37:39 58° E 10:37:39 58° E 10:40:59 10° ENE
STARLINK-57 3.8 10:38:22 62° SE 10:38:23 62° SE 10:42:22 10° ENE
Cosmos 2227 Rocket 3.6 10:41:27 22° SSW 10:41:27 22° SSW 10:43:47 10° SSW
STARLINK-49 3.8 10:39:43 60° SSE 10:39:55 61° SE 10:43:54 10° ENE
STARLINK-64 3.7 10:40:18 63° ESE 10:40:18 63° ESE 10:43:50 10° ENE
Cosmos 2074 Rocket 4.2 10:40:58 45° WSW 10:40:58 45° WSW 10:46:02 10° SSW
Cosmos 2360 4.1 10:38:01 37° SW 10:40:20 76° WNW 10:46:06 10° NNE
STARLINK-27 3.8 10:41:21 61° SSE 10:41:36 63° SE 10:45:36 10° ENE
Cosmos 2263 Rocket 3.7 10:38:00 10° N 10:43:05 33° ENE 10:48:09 10° ESE
STARLINK-74 3.7 10:42:54 62° SSE 10:43:12 65° SE 10:47:12 10° ENE
USA 215 3.3 10:37:53 10° ESE 10:44:24 77° NE 10:47:52 30° NW
STARLINK-39 3.7 10:44:32 63° S 10:44:54 68° SE 10:48:54 10° ENE
Cosmos 44 Rocket 3.1 10:45:41 67° WNW 10:46:08 73° WSW 10:50:52 10° SSE
STARLINK 3.6 10:46:09 64° S 10:46:34 71° SE 10:50:35 10° NE
NOSS 3-2 (A) 4.1 10:41:47 22° NNW 10:47:09 79° NE 10:55:38 10° SE
STARLINK-69 3.5 10:48:03 72° SSW 10:48:22 79° SE 10:52:25 10° NE
STARLINK-21 3.6 10:49:21 63° SSW 10:49:52 76° SE 10:53:54 10° NE
SKYMED 3 4.4 10:46:15 10° S 10:50:35 79° W 10:52:00 42° NNW
STARLINK-45 3.4 10:51:21 71° SW 10:51:46 86° SE 10:55:47 10° NE
STARLINK-70 3.4 10:52:44 66° SW 10:53:17 85° SE 10:57:19 10° NE
METEOR-M 4.1 10:48:19 10° NNE 10:53:42 87° ESE 10:59:03 10° SSW
STARLINK-76 3.5 10:54:08 60° SW 10:54:49 84° SE 10:58:52 10° NE
Cosmos 2228 3.5 10:51:25 10° S 10:55:45 61° E 11:00:05 10° NNE
Cosmos 2278 3.8 10:54:19 37° WSW 10:56:08 51° WNW 11:01:43 10° NNE
SL-4 R/B 2.0 10:56:05 50° N 10:56:25 52° NNE 10:59:47 10° ESE
STARLINK 3.4 10:55:43 58° SW 10:56:29 86° SE 11:00:31 10° NE
Cosmos 1726 2.5 10:53:55 10° S 10:57:33 62° E 11:01:11 10° NNE
STARLINK-32 3.4 10:57:19 55° SW 10:58:08 89° SE 11:02:11 10° NE
Cosmos 773 Rocket 4.4 10:59:22 39° WNW 10:59:22 39° WNW 11:04:10 10° N
CENTAUR R/B 3.7 10:52:20 13° NNW 10:59:37 57° NE 11:08:10 10° SE
STARLINK-40 3.4 10:58:56 54° SW 10:59:48 89° NW 11:03:51 10° NE
Helios 1A Rocket 4.3 10:56:01 10° NNE 10:59:56 41° E 11:03:51 10° S
ADEOS Rocket 4.1 10:55:25 10° SE 11:00:27 39° ENE 11:05:37 10° N
BREEZE M DEB (TANK) 2.2 11:00:39 74° NNE 11:00:39 74° NNE 11:04:34 10° ENE
STARLINK-44 3.4 11:00:31 51° WSW 11:01:28 86° NW 11:05:30 10° NE
Abrixas rocket 3.4 11:02:56 29° NNE 11:02:56 29° NNE 11:05:35 10° ENE
STARLINK-37 3.4 11:02:17 51° WSW 11:03:13 80° NW 11:07:15 10° NE
STARLINK-36 3.4 11:03:42 47° WSW 11:04:46 82° NW 11:08:48 10° NE
Cosmos 2369 4.3 11:04:59 33° WNW 11:05:13 33° WNW 11:10:22 10° N
STARLINK-61 3.7 11:05:46 48° NW 11:06:02 49° NNW 11:09:53 10° NE
STARLINK-68 3.4 11:05:37 48° WSW 11:06:37 73° NW 11:10:38 10° NE
STARLINK-63 3.4 11:07:02 45° WSW 11:08:09 73° NW 11:12:11 10° NE
NOSS 7 (D) 4.2 11:07:55 53° NNW 11:08:33 76° NE 11:12:01 10° SE
SL-16 R/B 3.3 11:03:34 10° S 11:08:55 45° ESE 11:14:18 10° NE
Cosmos 1908 4.3 11:05:15 10° SSE 11:09:01 47° E 11:12:47 10° NNE
STARLINK-35 3.4 11:08:27 42° WSW 11:09:42 74° NW 11:13:44 10° NE
Lacrosse 5 3.9 11:05:47 10° S 11:10:03 28° ESE 11:14:21 10° ENE
STARLINK-51 3.4 11:10:04 40° WSW 11:11:22 72° NW 11:15:24 10° NE
ATLAS 2AS CENTAUR R/B 3.1 11:04:06 10° SSW 11:12:03 88° ESE 11:20:07 10° NE
Meteor 2-10 4.1 11:06:38 10° S 11:12:13 87° E 11:17:39 10° N
STARLINK-30 3.4 11:11:39 38° WSW 11:13:01 70° NW 11:17:03 10° NE
STARLINK-72 3.5 11:13:15 37° WSW 11:14:41 68° NW 11:18:42 10° NE
SKYMED 2 3.9 11:10:43 10° S 11:14:49 41° W 11:16:27 29° NW
STARLINK-75 3.5 11:14:03 42° W 11:15:01 56° NNW 11:18:50 10° NE
Cosmos 2181 Rocket 4.0 11:09:21 10° S 11:15:32 89° E 11:21:52 10° N
STARLINK-50 3.5 11:14:50 35° WSW 11:16:20 66° NW 11:20:21 10° NE
STARLINK-59 3.5 11:16:36 35° W 11:18:06 61° NW 11:22:06 10° NE
Cosmos 1953 Rocket 3.6 11:13:40 10° N 11:18:08 83° E 11:22:31 10° S
Lacrosse 5 rocket 3.8 11:17:32 11° NNW 11:18:34 11° N 11:19:58 10° NNE
STARLINK-56 3.5 11:18:01 32° WSW 11:19:40 62° NW 11:23:40 10° NE
Meteor 1-16 Rocket 4.2 11:14:09 10° SSW 11:20:05 80° W 11:26:00 10° N
Cosmos 1703 3.6 11:17:14 10° N 11:21:12 68° E 11:25:06 10° SSE
Starlink (trailer) 3.5 11:19:36 31° WSW 11:21:18 60° NW 11:25:18 10° NE
CZ-4B R/B 3.2 11:16:12 10° NNE 11:21:47 88° ESE 11:27:14 10° SSW
Cosmos 923 Rocket 3.9 11:16:37 10° SSW 11:21:52 77° WNW 11:27:12 10° NNE
STARLINK-38 3.6 11:21:12 30° WSW 11:22:57 58° NW 11:26:57 10° NE
Cosmos 1758 Rocket 3.7 11:19:18 13° NNW 11:23:04 48° W 11:27:19 10° SSW
STARLINK-41 3.5 11:22:03 32° W 11:23:35 56° NW 11:27:24 10° NE
SL-8 Rocket 3.9 11:17:26 10° N 11:23:40 88° W 11:29:50 10° S
USA 238 DEB 3.9 11:18:03 17° NW 11:23:42 61° WSW 11:31:00 10° SSE
USA 238 3.9 11:18:08 17° NW 11:23:48 62° WSW 11:31:07 10° SSE
Cosmos 2341 Rocket 4.0 11:17:56 10° NNW 11:24:06 63° W 11:30:13 10° S
ALOS 2.6 11:19:46 10° N 11:24:11 42° WNW 11:28:33 10° SW
USA 116 4.1 11:19:33 10° S 11:24:23 60° WSW 11:28:43 10° NNW
STARLINK-65 3.6 11:22:46 29° W 11:24:37 57° NNW 11:28:35 10° NE
PAYLOAD B 4.2 11:19:11 10° N 11:24:45 66° WNW 11:30:17 10° SSW
FENGYUN 3A 3.8 11:19:49 10° N 11:25:01 50° WNW 11:30:13 10° SW
Cosmos 1980 Rocket 2.6 11:19:51 10° SW 11:25:12 41° WNW 11:30:34 10° N
STARLINK-53 3.7 11:24:32 28° W 11:26:22 53° NNW 11:30:19 10° NE
Okean O Rocket 1.5 11:26:05 10° N 11:30:32 66° WNW 11:34:55 10° SSW
STARLINK 3.6 11:28:53 25° W 11:30:50 53° NNW 11:34:36 10° NE
Cosmos 1953 3.3 11:28:31 10° SW 11:31:56 26° WNW 11:35:23 10° NNW
Cosmos 1697 Rocket 3.8 11:32:25 20° WNW 11:33:26 21° NW 11:37:38 10° N
STARLINK 1029 4.4 11:31:57 10° SSW 11:34:52 37° SE 11:37:48 10° ENE
Meteor 1-11 4.4 11:31:42 10° N 11:37:19 78° E 11:42:58 10° SSE
STARLINK-58 3.9 11:37:10 20° W 11:39:36 44° NNW 11:43:28 10° NE
COSMOS 2455 3.3 11:34:09 10° WSW 11:39:47 40° NW 11:45:26 10° NNE
USA 32 4.2 11:35:04 10° NNW 11:40:09 51° W 11:45:12 10° SSW
STARLINK-62 4.0 11:38:53 20° W 11:41:20 42° NNW 11:45:11 10° NE
Cosmos 2058 Rocket 3.0 11:42:30 10° SSW 11:46:53 64° W 11:51:14 10° N
Cosmos 1825 Rocket 4.4 11:44:38 10° NNW 11:48:23 29° W 11:52:07 10° SSW
STARLINK 1028 3.2 11:46:37 10° SW 11:49:28 60° SE 11:52:21 10° ENE
STARLINK 1021 3.2 11:46:48 10° SW 11:49:41 61° SE 11:52:34 10° ENE
STARLINK 1019 3.2 11:47:04 10° SW 11:49:55 61° SE 11:52:47 10° ENE
STARLINK 1012 3.2 11:47:16 10° SW 11:50:08 61° SE 11:53:01 10° ENE
STARLINK 1010 3.2 11:47:28 10° SW 11:50:20 62° SE 11:53:14 10° ENE
STARLINK 1026 3.1 11:47:42 10° SW 11:50:34 62° SE 11:53:28 10° ENE
Cosmos 2227 4.3 11:45:04 10° NNW 11:50:35 56° WSW 11:56:03 10° S
STARLINK 1013 3.1 11:47:55 10° SW 11:50:47 63° SE 11:53:41 10° ENE
STARLINK 1009 3.1 11:48:09 10° SW 11:51:01 63° SE 11:53:55 10° ENE
STARLINK 1015 3.1 11:48:24 10° SW 11:51:16 63° SE 11:54:09 10° ENE
STARLINK 1016 3.1 11:48:35 10° SW 11:51:28 64° SE 11:54:22 10° ENE
STARLINK 1008 3.1 11:48:50 10° SW 11:51:42 64° SE 11:54:36 10° ENE
STARLINK 1025 3.1 11:49:16 10° SW 11:52:09 65° SE 11:55:02 10° ENE
STARLINK 1017 3.1 11:49:30 10° SW 11:52:22 66° SE 11:55:17 10° ENE
STARLINK 1023 3.0 11:49:42 10° SW 11:52:35 66° SE 11:55:29 10° ENE
STARLINK 1007 3.0 11:49:57 10° SW 11:52:50 66° SE 11:55:44 10° ENE
STARLINK 1048 3.0 11:50:11 10° SW 11:53:04 67° SE 11:55:58 10° ENE
STARLINK 1049 3.0 11:50:24 10° SW 11:53:16 67° SE 11:56:11 10° ENE
STARLINK 1051 3.0 11:50:36 10° SW 11:53:29 68° SE 11:56:23 10° ENE
STARLINK 1014 3.0 11:50:34 10° SW 11:53:29 68° SE 11:56:26 10° ENE
RESURS DK-1 3.5 11:51:01 10° S 11:54:58 47° ESE 11:58:58 10° NE
STARLINK-33 4.3 11:53:31 15° W 11:55:56 29° NNW 11:59:10 10° NE
